This demonstration page uses our WeatherBlox Daily Observations layout. Learn more.

Left ArrowRight Arrow

Hourly Observations for September 17, 2021

Temp ( °F °C ) Dew Point ( °F °C ) Humidity (%) Winds ( mph kmh ) Pressure ( in mb ) Visibility ( mi km ) Precip ( " mm )
12:53 am 00:53 Clear 71 21.7 62 16.7 73 73 S 7 11 29.83 1010 10 16 0.00 0.00
1:53 am 01:53 Clear 72 22.2 62 16.7 71 71 S 8 13 29.83 1010 10 16 0.00 0.00
2:53 am 02:53 Clear 71 21.7 61 16.1 71 71 S 8 13 29.84 1011 10 16 0.00 0.00
3:53 am 03:53 Partly Cloudy 68 20 62 16.7 81 81 NNW 8 13 29.90 1012 10 16 0.00 0.00
4:53 am 04:53 Mostly Cloudy 69 20.6 62 16.7 78 78 N 6 9 29.93 1014 10 16 0.00 0.00
5:53 am 05:53 Cloudy 69 20.6 59 15 70 70 NNE 20 31 29.98 1015 10 16 0.00 0.00
6:15 am 06:15 Cloudy with Nearby Thunderstorms 68 20 59 15 73 73 NE 12 19 30.00 1016 10 16 0.00 0.00
6:50 am 06:50 Cloudy with Thunderstorms 66 19 61 16 83 83 ENE 12 19 30.01 1016 9 14 0.01 0.25
6:53 am 06:53 Cloudy with Thunderstorms 66 18.9 60 15.6 81 81 NE 12 19 30.03 1017 7 11 0.01 0.25
7:08 am 07:08 Cloudy with Nearby Thunderstorms 65 18.3 62 16.7 90 90 NNE 8 13 30.05 1018 6 10 0.05 1.27
7:19 am 07:19 Cloudy with Strong Thunderstorms 64 17.8 62 16.7 93 93 N 9 15 30.05 1018 3 5 0.17 4.32
7:34 am 07:34 Mostly Cloudy with Rain 64 17.8 63 17.2 96 96 NE 10 17 30.04 1017 4 6 0.27 6.86
7:45 am 07:45 Mostly Cloudy with Light Rain 64 17.8 63 17.2 96 96 ENE 10 17 30.04 1017 7 11 0.29 7.37
7:53 am 07:53 Mostly Cloudy with Thunderstorms 63 17.2 62 16.7 97 97 NE 14 22 30.06 1018 7 11 0.31 7.87
8:02 am 08:02 Mostly Cloudy with Thunderstorms 63 17.2 62 16.7 97 97 NNE 15 24 30.07 1018 9 14 0.00 0.00
8:12 am 08:12 Cloudy with Nearby Thunderstorms 63 17.2 62 16.7 97 97 ENE 14 22 30.05 1017 9 14 0.01 0.25
8:31 am 08:31 Cloudy with Light Rain 63 17.2 62 16.7 97 97 N 15 24 30.09 1019 10 16 0.02 0.51
8:53 am 08:53 Cloudy 60 15.6 58 14.4 93 93 NNE 17 28 30.12 1020 10 16 0.02 0.51
9:10 am 09:10 Cloudy 60 15.6 58 14.4 93 93 NNE 17 28 30.12 1020 10 16 0.00 0.00
9:24 am 09:24 Cloudy with Nearby Thunderstorms 61 16.1 58 14.4 90 90 NE 14 22 30.13 1020 10 16 0.00 0.00
9:39 am 09:39 Cloudy with Light Rain 61 16.1 58 14.4 90 90 NNE 9 15 30.14 1021 10 16 0.01 0.25
9:43 am 09:43 Cloudy with Nearby Thunderstorms 61 16.1 59 15 93 93 N 12 19 30.15 1021 10 16 0.01 0.25
9:53 am 09:53 Cloudy with Nearby Thunderstorms 61 16.1 59 15 93 93 NE 12 19 30.13 1020 10 16 0.01 0.25
10:04 am 10:04 Cloudy with Light Rain 61 16 59 15 94 94 NNE 14 22 30.12 1020 10 16 0.00 0.00
10:53 am 10:53 Cloudy 61 16.1 58 14.4 90 90 NE 12 19 30.17 1022 10 16 0.00 0.00
11:53 am 11:53 Mostly Cloudy 62 16.7 58 14.4 86 86 NE 12 19 30.19 1022 10 16 0.00 0.00
12:35 pm 12:35 Cloudy 62 16.7 58 14.4 86 86 NNE 8 13 30.19 1022 10 16 0.00 0.00
12:53 pm 12:53 Cloudy 62 16.7 58 14.4 86 86 NNE 9 15 30.20 1023 10 16 0.00 0.00
1:53 pm 13:53 Partly Cloudy 66 18.9 57 13.9 73 73 NE 15 24 30.17 1022 10 16 0.00 0.00
2:53 pm 14:53 Sunny 67 19.4 55 12.8 66 66 NNE 13 20 30.16 1021 10 16 0.00 0.00
3:53 pm 15:53 Sunny 71 21.7 55 12.8 57 57 NE 13 20 30.16 1021 10 16 0.00 0.00
4:53 pm 16:53 Sunny 72 22.2 55 12.8 55 55 NE 10 17 30.15 1021 10 16 0.00 0.00
5:53 pm 17:53 Sunny 71 21.7 54 12.2 55 55 ENE 7 11 30.15 1021 10 16 0.00 0.00
6:53 pm 18:53 Sunny 70 21.1 54 12.2 57 57 NE 9 15 30.16 1021 10 16 0.00 0.00
7:53 pm 19:53 Clear 65 18.3 55 12.8 70 70 NE 3 6 30.18 1022 10 16 0.00 0.00
9:53 pm 21:53 Clear 60 15.6 53 11.7 78 78 ENE 6 9 30.21 1023 10 16 0.00 0.00
10:53 pm 22:53 Clear 59 15 52 11.1 78 78 ENE 5 7 30.21 1023 10 16 0.00 0.00
11:53 pm 23:53 Clear 57 13.9 52 11.1 83 83 ENE 5 7 30.21 1023 10 16 0.00 0.00

Powered by AerisWeather